SR1WXZ Weather Reports


time (UTC)temp
C
wind
direction
speed
KPH
gust
KPH
rain 1hr
cm
rain 24hr
cm
rain mn
cm
humidity
%
barometer
mb
20260901225055 15 260 16.1 0.0 0.00 0.00 0.00 87 1017.0
20260901224758 15 260 16.1 0.0 0.00 0.00 0.00 87 1017.0
20260901223257 15 250 14.5 0.0 0.00 0.00 0.00 93 1017.0
20260901223053 15 250 14.5 0.0 0.00 0.00 0.00 93 1017.0
20260901221805 15 250 14.5 0.0 0.00 0.00 0.00 93 1017.0
20260901221052 15 250 11.3 0.0 0.00 0.00 0.00 93 1017.0
20260901220258 15 250 11.3 0.0 0.00 0.00 0.00 93 1017.0
20260901215101 15 250 11.3 0.0 0.00 0.00 0.00 93 1017.0
20260901214758 15 250 11.3 0.0 0.00 0.00 0.00 93 1017.0
20260901213258 13 240 8.0 0.0 0.00 0.00 0.00 100 1017.0
20260901213059 13 240 8.0 0.0 0.00 0.00 0.00 100 1017.0
20260901211803 13 240 8.0 0.0 0.00 0.00 0.00 100 1017.0
20260901211057 13 240 8.0 0.0 0.00 0.00 0.00 93 1017.0
20260901210256 13 240 8.0 0.0 0.00 0.00 0.00 93 1017.0
20260901205054 13 240 8.0 0.0 0.00 0.00 0.00 93 1017.0
20260901204800 13 240 8.0 0.0 0.00 0.00 0.00 93 1017.0
20260901203258 13 0.0 0.0 0.00 0.00 0.00 100 1017.0
20260901203053 13 0.0 0.0 0.00 0.00 0.00 100 1017.0
20260901201759 13 0.0 0.0 0.00 0.00 0.00 100 1017.0
20260901201051 15 260 4.8 0.0 0.00 0.00 0.00 93 1017.0
20260901200256 15 260 4.8 0.0 0.00 0.00 0.00 93 1017.0
20260901195054 15 260 4.8 0.0 0.00 0.00 0.00 93 1017.0
20260901194759 15 260 4.8 0.0 0.00 0.00 0.00 93 1017.0
20260901193256 15 240 4.8 0.0 0.00 0.00 0.00 93 1016.0
20260901193052 15 240 4.8 0.0 0.00 0.00 0.00 93 1016.0
20260901191759 15 240 4.8 0.0 0.00 0.00 0.00 93 1016.0
20260901191050 15 230 9.7 0.0 0.00 0.00 0.00 93 1016.0
20260901190259 15 230 9.7 0.0 0.00 0.00 0.00 93 1016.0
20260901185053 15 230 9.7 0.0 0.00 0.00 0.00 93 1016.0
20260901184757 15 230 9.7 0.0 0.00 0.00 0.00 93 1016.0
20260901183257 16 250 9.7 0.0 0.00 0.00 0.00 93 1016.0
20260901183051 16 250 9.7 0.0 0.00 0.00 0.00 93 1016.0
20260901181759 16 250 9.7 0.0 0.00 0.00 0.00 93 1016.0
20260901181049 16 230 8.0 0.0 0.00 0.00 0.00 93 1016.0
20260901180256 16 230 8.0 0.0 0.00 0.00 0.00 93 1016.0
20260901175053 16 230 8.0 0.0 0.00 0.00 0.00 93 1016.0
20260901174757 16 230 8.0 0.0 0.00 0.00 0.00 93 1016.0
20260901173257 16 200 8.0 0.0 0.00 0.00 0.00 93 1016.0
20260901173051 16 200 8.0 0.0 0.00 0.00 0.00 93 1016.0
20260901171758 16 200 8.0 0.0 0.00 0.00 0.00 93 1016.0
20260901171049 17 220 12.9 0.0 0.00 0.00 0.00 88 1016.0
20260901170257 17 220 12.9 0.0 0.00 0.00 0.00 88 1016.0
20260901165054 17 220 12.9 0.0 0.00 0.00 0.00 88 1016.0
20260901164758 17 220 12.9 0.0 0.00 0.00 0.00 88 1016.0
20260901163256 17 190 4.8 0.0 0.00 0.00 0.00 93 1015.0
20260901163053 17 190 4.8 0.0 0.00 0.00 0.00 93 1015.0
20260901161758 17 190 4.8 0.0 0.00 0.00 0.00 93 1015.0
20260901161051 16 280 4.8 0.0 0.00 0.00 0.00 100 1015.0
20260901160256 16 280 4.8 0.0 0.00 0.00 0.00 100 1015.0
20260901155053 16 280 4.8 0.0 0.00 0.00 0.00 100 1015.0
20260901154758 16 280 4.8 0.0 0.00 0.00 0.00 100 1015.0
20260901153257 18 300 11.3 0.0 0.00 0.00 0.00 88 1015.0
20260901153052 18 300 11.3 0.0 0.00 0.00 0.00 88 1015.0
20260901151758 18 300 11.3 0.0 0.00 0.00 0.00 88 1015.0
20260901151050 18 250 4.8 0.0 0.00 0.00 0.00 82 1015.0
20260901150256 18 250 4.8 0.0 0.00 0.00 0.00 82 1015.0
20260901145101 18 250 4.8 0.0 0.00 0.00 0.00 82 1015.0
20260901144758 18 250 4.8 0.0 0.00 0.00 0.00 82 1015.0
20260901143257 17 0.0 0.0 0.00 0.00 0.00 82 1015.0
20260901143059 17 0.0 0.0 0.00 0.00 0.00 82 1015.0
20260901141759 17 0.0 0.0 0.00 0.00 0.00 82 1015.0
20260901141057 17 240 9.7 0.0 0.00 0.00 0.00 88 1015.0
20260901140257 17 240 9.7 0.0 0.00 0.00 0.00 88 1015.0
20260901135053 17 240 9.7 0.0 0.00 0.00 0.00 88 1015.0
20260901134758 17 240 9.7 0.0 0.00 0.00 0.00 88 1015.0
20260901133257 16 290 12.9 0.0 0.00 0.00 0.00 93 1015.0
20260901133052 16 290 12.9 0.0 0.00 0.00 0.00 93 1015.0
20260901131802 16 290 12.9 0.0 0.00 0.00 0.00 93 1015.0
20260901131050 17 280 25.7 49.9 0.00 0.00 0.00 88 1015.0
20260901130304 17 280 25.7 49.9 0.00 0.00 0.00 88 1015.0
20260901125052 17 280 25.7 49.9 0.00 0.00 0.00 88 1015.0
20260901124800 17 280 25.7 49.9 0.00 0.00 0.00 88 1015.0
20260901123258 17 260 25.7 46.7 0.00 0.00 0.00 88 1015.0
20260901123050 17 260 25.7 46.7 0.00 0.00 0.00 88 1015.0
20260901121758 17 260 25.7 46.7 0.00 0.00 0.00 88 1015.0
20260901121049 21 240 24.1 0.0 0.00 0.00 0.00 64 1014.0
20260901120258 21 240 24.1 0.0 0.00 0.00 0.00 64 1014.0
20260901115053 21 240 24.1 0.0 0.00 0.00 0.00 64 1014.0
20260901114758 21 240 24.1 0.0 0.00 0.00 0.00 64 1014.0
20260901113257 21 260 22.5 0.0 0.00 0.00 0.00 64 1014.0
20260901113051 21 260 22.5 0.0 0.00 0.00 0.00 64 1014.0
20260901111758 21 260 22.5 0.0 0.00 0.00 0.00 64 1014.0
20260901111050 20 240 20.9 0.0 0.00 0.00 0.00 68 1014.0
20260901110257 20 240 20.9 0.0 0.00 0.00 0.00 68 1014.0
20260901105053 20 240 20.9 0.0 0.00 0.00 0.00 68 1014.0
20260901104758 20 240 20.9 0.0 0.00 0.00 0.00 68 1014.0
20260901103257 18 260 20.9 0.0 0.00 0.00 0.00 77 1014.0
20260901103051 18 260 20.9 0.0 0.00 0.00 0.00 77 1014.0
20260901101758 18 260 20.9 0.0 0.00 0.00 0.00 77 1014.0
20260901101050 17 260 16.1 0.0 0.00 0.00 0.00 82 1014.0
20260901100257 17 260 16.1 0.0 0.00 0.00 0.00 82 1014.0
20260901095052 17 260 16.1 0.0 0.00 0.00 0.00 82 1014.0
20260901094758 17 260 16.1 0.0 0.00 0.00 0.00 82 1014.0
20260901093259 17 250 14.5 0.0 0.00 0.00 0.00 88 1014.0
20260901093050 17 250 14.5 0.0 0.00 0.00 0.00 88 1014.0
20260901091759 17 250 14.5 0.0 0.00 0.00 0.00 88 1014.0
20260901091049 17 240 9.7 0.0 0.00 0.00 0.00 88 1014.0
20260901090257 17 240 9.7 0.0 0.00 0.00 0.00 88 1014.0
20260901085054 17 240 9.7 0.0 0.00 0.00 0.00 88 1014.0
20260901084758 17 240 9.7 0.0 0.00 0.00 0.00 88 1014.0
20260901083257 16 240 11.3 0.0 0.00 0.00 0.00 93 1013.0
20260901083052 16 240 11.3 0.0 0.00 0.00 0.00 93 1013.0
20260901081758 16 240 11.3 0.0 0.00 0.00 0.00 93 1013.0
20260901081051 16 240 11.3 0.0 0.00 0.00 0.00 93 1013.0
20260901080257 16 240 11.3 0.0 0.00 0.00 0.00 93 1013.0
20260901075052 16 240 11.3 0.0 0.00 0.00 0.00 93 1013.0
20260901074758 16 240 11.3 0.0 0.00 0.00 0.00 93 1013.0
20260901073256 16 240 11.3 0.0 0.00 0.00 0.00 87 1013.0
20260901073050 16 240 11.3 0.0 0.00 0.00 0.00 87 1013.0
20260901071758 16 240 11.3 0.0 0.00 0.00 0.00 87 1013.0
20260901071048 15 250 12.9 0.0 0.00 0.00 0.00 93 1013.0
20260901070259 15 250 12.9 0.0 0.00 0.00 0.00 93 1013.0
20260901065052 15 250 12.9 0.0 0.00 0.00 0.00 93 1013.0
20260901064757 15 250 12.9 0.0 0.00 0.00 0.00 93 1013.0
20260901063257 15 240 14.5 0.0 0.00 0.00 0.00 93 1012.0
20260901063050 15 240 14.5 0.0 0.00 0.00 0.00 93 1012.0
20260901061758 15 240 14.5 0.0 0.00 0.00 0.00 93 1012.0
20260901061048 15 230 11.3 0.0 0.00 0.00 0.00 93 1012.0
20260901060258 15 230 11.3 0.0 0.00 0.00 0.00 93 1012.0
20260901055054 15 230 11.3 0.0 0.00 0.00 0.00 93 1012.0
20260901054758 15 230 11.3 0.0 0.00 0.00 0.00 93 1012.0
20260901053256 13 240 9.7 0.0 0.00 0.00 0.00 100 1012.0
20260901053052 13 240 9.7 0.0 0.00 0.00 0.00 100 1012.0
20260901051758 13 240 9.7 0.0 0.00 0.00 0.00 100 1012.0
20260901051051 13 250 8.0 0.0 0.00 0.00 0.00 93 1012.0
20260901050300 13 250 8.0 0.0 0.00 0.00 0.00 93 1012.0
20260901045054 13 250 8.0 0.0 0.00 0.00 0.00 93 1012.0
20260901044758 13 250 8.0 0.0 0.00 0.00 0.00 93 1012.0
20260901043256 13 250 11.3 0.0 0.00 0.00 0.00 93 1012.0
20260901043052 13 250 11.3 0.0 0.00 0.00 0.00 93 1012.0
20260901041758 13 250 11.3 0.0 0.00 0.00 0.00 93 1012.0
20260901041050 15 240 11.3 0.0 0.00 0.00 0.00 93 1011.0
20260901040256 15 240 11.3 0.0 0.00 0.00 0.00 93 1011.0
20260901035053 15 240 11.3 0.0 0.00 0.00 0.00 93 1011.0
20260901034758 15 240 11.3 0.0 0.00 0.00 0.00 93 1011.0
20260901033257 15 220 11.3 0.0 0.00 0.00 0.00 93 1011.0
20260901033051 15 220 11.3 0.0 0.00 0.00 0.00 93 1011.0
20260901031758 15 220 11.3 0.0 0.00 0.00 0.00 93 1011.0
20260901031049 15 230 9.7 0.0 0.00 0.00 0.00 93 1011.0
20260901030255 15 230 9.7 0.0 0.00 0.00 0.00 93 1011.0
20260901025054 15 230 9.7 0.0 0.00 0.00 0.00 93 1011.0
20260901024757 15 230 9.7 0.0 0.00 0.00 0.00 93 1011.0
20260901023256 15 0.0 0.0 0.00 0.00 0.00 93 1011.0
20260901023052 15 0.0 0.0 0.00 0.00 0.00 93 1011.0
20260901021758 15 0.0 0.0 0.00 0.00 0.00 93 1011.0
20260901021050 13 0.0 0.0 0.00 0.00 0.00 100 1011.0
20260901020300 13 0.0 0.0 0.00 0.00 0.00 100 1011.0
20260901015052 13 0.0 0.0 0.00 0.00 0.00 100 1011.0
20260901014759 13 0.0 0.0 0.00 0.00 0.00 100 1011.0
20260901013301 13 0.0 0.0 0.00 0.00 0.00 100 1011.0
20260901013051 13 0.0 0.0 0.00 0.00 0.00 100 1011.0
20260901011759 13 0.0 0.0 0.00 0.00 0.00 100 1011.0
20260901011049 15 280 8.0 0.0 0.00 0.00 0.00 93 1011.0
20260901010258 15 280 8.0 0.0 0.00 0.00 0.00 93 1011.0
20260901005052 15 280 8.0 0.0 0.00 0.00 0.00 93 1011.0
20260901004756 15 280 8.0 0.0 0.00 0.00 0.00 93 1011.0
20260901003257 16 260 16.1 0.0 0.00 0.00 0.00 93 1011.0
20260901003051 16 260 16.1 0.0 0.00 0.00 0.00 93 1011.0
20260901001757 16 260 16.1 0.0 0.00 0.00 0.00 93 1011.0
20260901001049 16 230 9.7 0.0 0.00 0.00 0.00 93 1011.0
20260901000256 16 230 9.7 0.0 0.00 0.00 0.00 93 1011.0
20260831235053 16 230 9.7 0.0 0.00 0.00 0.00 93 1011.0
20260831234757 16 230 9.7 0.0 0.00 0.00 0.00 93 1011.0
20260831233256 16 200 8.0 0.0 0.00 0.00 0.00 93 1011.0
20260831233052 16 200 8.0 0.0 0.00 0.00 0.00 93 1011.0
20260831231758 16 200 8.0 0.0 0.00 0.00 0.00 93 1011.0
20260831231050 15 170 8.0 0.0 0.00 0.00 0.00 100 1011.0
20260831230259 15 170 8.0 0.0 0.00 0.00 0.00 100 1011.0